Flag for Germany Weather past 2 weeks in Neuburg an der Donau, Bavaria, Germany

Now
34 °F

Chilly.


Feels Like: 28 °F
Forecast: 30 / 41 °F
Wind: 7 mph from West

Location: Neuburg / Donau

Current Time: Feb 27, 2015 at 10:48:26 PM

Latest Report: Feb 27, 2015 at 9:20 PM


Visibility: N/A

Pressure: 30.04 "Hg

Humidity: 100%

Dew point: 34 °F

Location of Neuburg an der DonauLocation

Historic Weather in Neuburg an der Donau — Graph

°F

Neuburg an der Donau temperature yesterday

Maximum temperature yesterday: 45 °F (at 3:20 PM)
Minimum temperature yesterday: 23 °F (at 4:20 AM)
Average temperature yesterday: 31 °F

Past Weeks' High & Low Weather Summary

 TemperatureHumidityPressure
High45 °F (Feb 26, 3:20 PM)100% (Feb 13, 2:20 AM)30.72 "Hg (Feb 13, 2:20 AM)
Low23 °F (Feb 20, 6:20 AM)53% (Feb 26, 3:20 PM)29.50 "Hg (Feb 21, 1:20 PM)
Average31 °F92%30.03 "Hg
* Reported Feb 12 9:20 PM — Feb 27 9:20 PM, Neuburg an der Donau, Weather by CustomWeather, © 2015

Note: Actual official high and low records may vary slightly from our data, if they occured in-between our weather recording intervals... More about our weather records

Advertising

Neuburg an der Donau weather history for previous 24 hours

 ConditionsComfort  
Time TempWeatherWind HumidityBarometerVisibility
9:20 PM
Fri, Feb 27
34 °FChilly.7 mph100%30.04 "HgN/A
8:20 PM34 °FChilly.6 mph100%30.01 "HgN/A
7:20 PM36 °FChilly.7 mph93%29.98 "HgN/A
6:20 PM36 °FChilly.7 mph93%29.95 "HgN/A
5:20 PM37 °FChilly.8 mph87%29.92 "HgN/A
4:20 PM39 °FChilly.8 mph81%29.89 "HgN/A
3:20 PM39 °FChilly.8 mph81%29.86 "HgN/A
2:20 PM41 °FQuite cool.7 mph70%29.86 "HgN/A
1:20 PM41 °FScattered clouds.8 mph70%29.86 "HgN/A
12:20 PM41 °FScattered clouds.2 mph61%29.86 "HgN/A
11:20 AM37 °FScattered clouds.2 mph75%29.86 "Hg6 mi
10:20 AM34 °FPassing clouds.2 mph81%29.83 "Hg4 mi
9:20 AM28 °FPassing clouds.2 mph93%29.83 "Hg4 mi
8:20 AM27 °FIce fog.No wind93%29.83 "Hg3 mi
7:20 AM23 °FIce fog.1 mph93%29.83 "Hg3 mi
6:20 AM23 °FIce fog.1 mph100%29.86 "Hg2 mi
5:20 AM23 °FCold.1 mph100%29.83 "HgN/A
4:20 AM23 °FCold.1 mph100%29.86 "HgN/A
3:20 AM27 °FChilly.2 mph93%29.89 "HgN/A
2:20 AM27 °FChilly.1 mph93%29.89 "HgN/A
1:20 AMN/A2 mphN/AN/AN/A
12:20 AM27 °FChilly.1 mph100%29.95 "HgN/A
11:20 PM
Thu, Feb 26
28 °FChilly.2 mph93%29.95 "HgN/A
10:20 PM28 °FChilly.1 mph93%29.98 "HgN/A
Weather by CustomWeather, © 2015

See weather overviewHow to use our weather pages